Terminal Aerodrome Forecast
Issued by NWS Detroit/Pontiac, MI

Home | Current Version | Previous Version | Text Only | Print | Product List | Glossary On
Versions: 1 2 3 4 5 6 7 8 9 10 11 12 13 14 15 16 17 18 19 20 21 22
403
FTUS43 KDTX 171440 AAA
TAFFNT
TAF AMD
KFNT 171440Z 1715/1812 23015G25KT P6SM BKN250
     FM172300 23010KT P6SM SCT250=

USA.gov is the U.S. government's official web portal to all federal, state and local government web resources and services.